Watsonville, CA

12:50 PM PDT on April 30, 2017 (GMT -0700)
Watsonville Municipal

Weather History for KWVI - January, 2012

Change the Weather History Date:

Saturday, January 7, 2012

  Actual Average Record
Temperature  
Mean Temperature 54 °F 50 °F  
Max Temperature 70 °F 61 °F 77 °F (2015)
Min Temperature 38 °F 39 °F 32 °F (1999)
Degree Days  
Heating Degree Days 11    
Month to date heating degree days 74  
Since 1 July heating degree days 1208  
Cooling Degree Days 0    
Month to date cooling degree days 0  
Year to date cooling degree days 0  
Growing Degree Days 4 (Base 50)    
Moisture  
Dew Point 33 °F    
Average Humidity 58    
Maximum Humidity 100    
Minimum Humidity 15    
Precipitation  
Precipitation 0.00 in - 1.76 in (2017)
Month to date precipitation 0.00  
Year to date precipitation 0.00  
Since 1 July precipitation 4.29  
Sea Level Pressure  
Sea Level Pressure 30.15 in    
Wind  
Wind Speed 3 mph (NW)    
Max Wind Speed 13 mph    
Max Gust Speed 21 mph    
Visibility 10 miles    
Events      
T = Trace of Precipitation, MM = Missing Value Source: NWS Daily Summary

Daily Weather History Graph

Daily Weather History Graph

Search for Another Location

Airport or City:

Trip Planner

Search our weather history database for the weather conditions in past years. The results will help you decide how hot, cold, wet, or windy it might be!

Date:

Astronomy

Jan. 07, 2012 Rise Set
Actual Time 7:20 AM PST 5:06 PM PST
Civil Twilight 6:52 AM PST 5:34 PM PST
Nautical Twilight 6:19 AM PST 6:07 PM PST
Astronomical Twilight 5:48 AM PST 6:38 PM PST
Moon 3:55 PM PST (1/7) 5:56 AM PST (1/7)
Length of Visible Light 10h 42m
Length of Day
9h 45m
Waxing Gibbous, 98% of the Moon is Illuminated
Jan 7
Waxing Gibbous
Jan 8
Full
Jan 16
Last Quarter
Jan 22
New
Jan 30
First Quarter

Hourly Weather History & Observations

Time (PST) Temp. Windchill Dew Point Humidity Pressure Visibility Wind Dir Wind Speed Gust Speed Precip Events Conditions
12:53 AM 42.1 °F - 39.0 °F 89% 30.15 in 10.0 mi Calm Calm - N/A   Clear
1:53 AM 42.1 °F 40.2 °F 39.0 °F 89% 30.15 in 10.0 mi NW 3.5 mph - N/A   Clear
2:53 AM 42.1 °F 39.2 °F 39.0 °F 89% 30.16 in 10.0 mi WNW 4.6 mph - N/A   Clear
3:53 AM 43.0 °F 39.5 °F 39.0 °F 86% 30.16 in 10.0 mi NW 5.8 mph - 0.01 in   Clear
4:53 AM 41.0 °F 38.0 °F 37.0 °F 86% 30.16 in 10.0 mi NW 4.6 mph - N/A   Clear
5:53 AM 37.9 °F - 37.0 °F 97% 30.16 in 9.0 mi Calm Calm - N/A   Clear
6:53 AM 39.9 °F - 36.0 °F 86% 30.17 in 10.0 mi Calm Calm - N/A   Clear
7:53 AM 39.9 °F - 37.0 °F 89% 30.17 in 8.0 mi Calm Calm - N/A   Clear
8:53 AM 45.0 °F - 39.9 °F 82% 30.19 in 10.0 mi Calm Calm - N/A   Clear
9:53 AM 50.0 °F - 42.1 °F 74% 30.22 in 10.0 mi Calm Calm - N/A   Clear
10:53 AM 57.0 °F - 42.1 °F 57% 30.19 in 10.0 mi ESE 4.6 mph - N/A   Clear
12:53 PM 64.0 °F - 41.0 °F 43% 30.13 in 10.0 mi SSW 9.2 mph - N/A   Clear
1:53 PM 63.0 °F - 39.0 °F 41% 30.11 in 10.0 mi Variable 3.5 mph - N/A   Clear
2:53 PM 70.0 °F - 24.1 °F 18% 30.10 in 10.0 mi Variable 5.8 mph - N/A   Clear
3:53 PM 68.0 °F - 19.9 °F 16% 30.09 in 10.0 mi North 4.6 mph - N/A   Clear
4:53 PM 64.9 °F - 19.0 °F 17% 30.09 in 10.0 mi North 5.8 mph - N/A   Clear
5:53 PM 59.0 °F - 28.9 °F 32% 30.11 in 10.0 mi WNW 3.5 mph - N/A   Clear
6:53 PM 55.0 °F - 27.0 °F 34% 30.13 in 10.0 mi Calm Calm - N/A   Clear
7:53 PM 53.1 °F - 26.1 °F 35% 30.14 in 10.0 mi Calm Calm - N/A   Clear
8:53 PM 51.1 °F - 24.1 °F 35% 30.16 in 10.0 mi Calm Calm - N/A   Clear
9:53 PM 52.0 °F - 23.0 °F 32% 30.16 in 10.0 mi Calm Calm - N/A   Clear
10:53 PM 46.9 °F - 26.1 °F 44% 30.17 in 10.0 mi Calm Calm - N/A   Clear
11:53 PM 43.0 °F - 26.1 °F 51% 30.16 in 10.0 mi Calm Calm - N/A   Clear